Location: Go?cza
(50.3372°N, 19.9313°E)
Time: 13:34:23
(UTC+00:00)

CZ-2C R/B - Pass Details

Date: 12 August 2024
Orbit: 666 x 777 km, 98.4° (Epoch: 06 September)

Event Time Altitude Azimuth Distance (km) Brightness Sun altitude
Rises 02:03:10 0° 17° (NNE) 3,266 6.9 -11.8°
Reaches altitude 10° 02:05:34 10° 23° (NNE) 2,339 6.1 -11.5°
Maximum altitude 02:10:38 53° 100° (E) 950 3.3 -10.8°
Drops below altitude 10° 02:15:38 10° 177° (S) 2,314 4.6 -10.2°
Sets 02:17:59 0° 182° (S) 3,228 5.3 -9.9°
